FENGYUN 1C DEB

Satellite information

Favourite Embed

Satellite Type and Status

DEBRISIN ORBIT

Key statistics

Satellite FENGYUN 1C DEB at a glance.

Uptime

9659

Days in orbit

Revolutions

≈ 14.3

Per day

Orbit

SSO

Sun Synchronous Orbit

Inclination

99.4

Latest

Satellite identification and parameters

Extended collection of information and parameters for FENGYUN 1C DEB.

Object identification

Identified? True

Debris? True

Object name: FENGYUN 1C DEB

International designator: 1999-025CTA

Object number (NORAD): 32156

Object ID (CCSDS): 32156

Country: PEOPLES REPUBLIC OF CHINA (PRC)

Current information (Y/N): Y

RCS size: SMALL

Orbital parameters

Period: 100.575 minutes

Inclination: 99.3534 deg

SMA: 7163.969 km

Apoapsis: 844.124 km

Periapsis: 727.545 km

RAAN: 94.3952 deg

Eccentricy: 0.0081365

Argument of periapsis: 222.214 deg

Mean anomaly: 137.2757 deg

Mean motion: 14.31766508 rev/day

Mean motion (dot): 0.00001442 rev/day2

B* drag term: 0.0005388 1/REarth

Two-line elements (TLE)

Creation date: Oct. 17, 2025, 6:56 a.m.

Reference frame: TEME

Reference center: EARTH

Epoch: Oct. 16, 2025, 6:38 a.m. UTC

TLE line 0: 0 FENGYUN 1C DEB

TLE line 1: 1 32156U 99025CTA 25289.27662128 .00001442 00000-0 53880-3 0 9990

TLE line 2: 2 32156 99.3534 94.3952 0081365 222.2140 137.2757 14.31766508639988

Live tracking on map

Real-time ground track for satellite FENGYUN 1C DEB.

In-orbit conjunctions

A list of the most updated potential collisions computed for object FENGYUN 1C DEB.

Target Orbit TCA Probability of collision Miss distance Type
METEOR 2-7 LEO 2025-08-05 13:27:32 0.0003057889 936.0 (m) PAYLOAD
CZ-6A DEB LEO 2025-01-26 07:08:06 0.0001538114 184.0 (m) DEBRIS
CZ-6A DEB LEO 2025-01-02 22:07:07 0.0001941832 356.0 (m) DEBRIS
COSMOS 2251 DEB LEO 2024-11-17 13:34:05 0.0001616888 904.0 (m) DEBRIS

Associated space launch

Chinese polar orbiting meteorological satellite

FENGYUN 1C DEB was lifted into orbit during the mission ‘Long March 4B | Feng Yun 1C’, on board a Long March 4B space rocket.

The launch took place on May 10, 1999, 1:33 a.m. from Launch Complex 7.

For more information about the launch, click the button.

Launch to space Long March 4B | Feng Yun 1C
Long March 4B | Feng Yun 1C

Agency: N/A

Status: Launch Successful

Launch date: May 10, 1999, 1:33 a.m. UTC

Rocket: Long March 4B

Launch pad: Launch Complex 7

Location: Taiyuan Satellite Launch Center, People's Republic of China

...

Latest news about this satellite

There are no fresh news available about this satellite. Check back as we update our databases every day.


Newsletter sign-up

Weekly statistics, charts and insights to help you stay on top of the space industry.